Weather History for Lancaster, OH

Change the Weather History Date:

Friday, March 15, 2013

  Actual Average Record
Temperature  
Mean Temperature 38 °F -  
Max Temperature 50 °F 48 °F 80 °F (1990)
Min Temperature 26 °F 28 °F 4 °F (1993)
Degree Days  
Heating Degree Days 27    
Moisture  
Dew Point 29 °F    
Average Humidity 68    
Maximum Humidity 89    
Minimum Humidity 52    
Precipitation  
Precipitation 0.06 in - - ()
Sea Level Pressure  
Sea Level Pressure 29.99 in    
Wind  
Wind Speed 4 mph (WSW)    
Max Wind Speed 13 mph    
Max Gust Speed -    
Visibility 9 miles    
Events Rain    
Averages and records for this station are not official NWS values.
T = Trace of Precipitation, MM = Missing Value Source: NWS Daily Summary

Daily Weather History Graph

Daily Weather History Graph

Search for Another Location

Airport:

Trip Planner

Search our weather history database for the weather conditions in past years. The results will help you decide how hot, cold, wet, or windy it might be!

Date:

Astronomy

Mar. 15, 2013 Rise Set
Actual Time 7:41 AM EDT 7:37 PM EDT
Civil Twilight 7:14 AM EDT 8:04 PM EDT
Nautical Twilight 6:43 AM EDT 8:36 PM EDT
Astronomical Twilight 6:11 AM EDT 9:07 PM EDT
Moon 9:31 AM EDT (3/15) 11:50 PM EDT (3/15)
Length of Visible Light 12h 49m
Length of Day
11h 56m
Waxing Crescent, 15% of the Moon is Illuminated
Mar 15
Waxing Crescent
Mar 19
First Quarter
Mar 27
Full
Apr 3
Last Quarter
Apr 10
New

Hourly Weather History & Observations

Time (EDT) Temp. Windchill Dew Point Humidity Pressure Visibility Wind Dir Wind Speed Gust Speed Precip Events Conditions
12:53 AM 26.1 °F - 19.9 °F 78% 30.18 in 10.0 mi Calm Calm - N/A   Clear
1:53 AM 26.1 °F - 19.9 °F 78% 30.16 in 10.0 mi Calm Calm - N/A   Clear
2:53 AM 26.1 °F - 19.0 °F 75% 30.15 in 10.0 mi Calm Calm - N/A   Clear
3:53 AM 30.9 °F 26.2 °F 19.0 °F 61% 30.13 in 10.0 mi West 4.6 mph - N/A   Scattered Clouds
4:53 AM 30.9 °F - 19.9 °F 64% 30.11 in 10.0 mi Calm Calm - N/A   Clear
5:53 AM 28.0 °F - 19.0 °F 69% 30.10 in 10.0 mi Calm Calm - N/A   Clear
6:53 AM 30.9 °F 27.5 °F 21.9 °F 69% 30.07 in 10.0 mi South 3.5 mph - N/A   Mostly Cloudy
7:53 AM 30.9 °F 26.2 °F 23.0 °F 72% 30.06 in 10.0 mi SSW 4.6 mph - N/A   Clear
8:53 AM 33.1 °F 28.7 °F 25.0 °F 72% 30.06 in 10.0 mi SW 4.6 mph - N/A   Clear
9:53 AM 36.0 °F 29.0 °F 28.0 °F 73% 30.05 in 10.0 mi SW 9.2 mph - N/A   Clear
10:53 AM 39.9 °F 33.4 °F 28.9 °F 65% 30.03 in 10.0 mi WSW 10.4 mph - N/A   Clear
11:53 AM 43.0 °F 38.2 °F 30.0 °F 60% 29.99 in 10.0 mi WSW 8.1 mph - N/A   Clear
12:53 PM 45.0 °F 41.2 °F 30.9 °F 58% 29.96 in 10.0 mi West 6.9 mph - N/A   Clear
1:53 PM 48.0 °F - 32.0 °F 54% 29.95 in 10.0 mi West 8.1 mph - N/A   Clear
2:53 PM 48.9 °F - 32.0 °F 52% 29.93 in 10.0 mi West 12.7 mph - N/A   Clear
3:53 PM 48.9 °F - 33.1 °F 54% 29.90 in 10.0 mi WSW 10.4 mph - N/A   Partly Cloudy
4:53 PM 50.0 °F - 34.0 °F 54% 29.89 in 10.0 mi West 11.5 mph - N/A   Clear
5:53 PM 48.9 °F - 34.0 °F 56% 29.89 in 10.0 mi West 9.2 mph - N/A   Mostly Cloudy
6:53 PM 48.9 °F - 35.1 °F 59% 29.89 in 10.0 mi WNW 3.5 mph - N/A   Mostly Cloudy
7:53 PM 46.9 °F - 35.1 °F 63% 29.90 in 10.0 mi West 3.5 mph - N/A   Overcast
8:53 PM 46.0 °F 44.8 °F 35.1 °F 66% 29.91 in 10.0 mi West 3.5 mph - N/A   Overcast
9:53 PM 45.0 °F 43.5 °F 37.0 °F 74% 29.88 in 8.0 mi South 3.5 mph - 0.00 in Rain Light Rain
10:53 PM 43.0 °F 41.3 °F 39.0 °F 86% 29.90 in 5.0 mi WNW 3.5 mph - 0.02 in Rain Light Rain
11:19 PM 42.8 °F 41.1 °F 39.2 °F 87% 29.89 in 4.0 mi West 3.5 mph - 0.02 in Rain Light Rain
11:53 PM 43.0 °F 41.3 °F 39.9 °F 89% 29.88 in 4.0 mi SSE 3.5 mph - 0.04 in Rain Light Rain